TimeCST,TemperatureF,Dew PointF,Humidity,Sea Level PressureIn,VisibilityMPH,Wind Direction,Wind SpeedMPH,Gust SpeedMPH,PrecipitationIn,Events,Conditions,WindDirDegrees,DateUTC
12:12 AM,64.4,64.4,100,29.86,1.8,WSW,15.0,-,N/A,,Overcast,240,2014-01-11 06:12:00
12:22 AM,64.4,64.4,100,29.86,1.2,SW,11.5,-,N/A,,Overcast,230,2014-01-11 06:22:00
12:36 AM,64.4,64.4,100,29.86,2.0,SW,10.4,-,N/A,,Overcast,230,2014-01-11 06:36:00
12:46 AM,64.4,64.4,100,29.86,4.0,WSW,9.2,-,N/A,,Overcast,250,2014-01-11 06:46:00
12:53 AM,64.9,64.0,97,29.85,5.0,SW,9.2,-,N/A,,Overcast,230,2014-01-11 06:53:00
1:34 AM,66.2,64.4,94,29.85,6.0,WSW,6.9,-,N/A,,Overcast,240,2014-01-11 07:34:00
1:53 AM,64.9,63.0,93,29.85,5.0,SW,4.6,-,N/A,,Mostly Cloudy,220,2014-01-11 07:53:00
2:01 AM,64.4,62.6,94,29.85,5.0,SW,5.8,-,N/A,,Mostly Cloudy,220,2014-01-11 08:01:00
2:35 AM,62.6,62.6,100,29.85,1.8,SW,5.8,-,N/A,,Overcast,220,2014-01-11 08:35:00
2:47 AM,64.4,62.6,94,29.86,2.0,SW,4.6,-,N/A,,Overcast,230,2014-01-11 08:47:00
2:53 AM,63.0,62.1,97,29.86,1.5,SSW,4.6,-,N/A,,Overcast,210,2014-01-11 08:53:00
3:09 AM,64.4,62.6,94,29.85,1.0,SW,4.6,-,N/A,,Mist,220,2014-01-11 09:09:00
3:18 AM,64.4,62.6,94,29.85,0.8,SW,5.8,-,N/A,,Mist,220,2014-01-11 09:18:00
3:30 AM,62.6,62.6,100,29.86,0.2,SW,4.6,-,N/A,Fog,Fog,220,2014-01-11 09:30:00
3:53 AM,63.0,62.1,97,29.86,0.2,SSW,5.8,-,N/A,Fog,Fog,210,2014-01-11 09:53:00
4:35 AM,62.6,60.8,94,29.87,0.2,SW,5.8,-,N/A,Fog,Fog,220,2014-01-11 10:35:00
4:53 AM,62.1,61.0,96,29.88,0.2,WSW,6.9,-,N/A,Fog,Fog,240,2014-01-11 10:53:00
5:07 AM,62.6,62.6,100,29.88,0.2,WSW,8.1,-,N/A,Fog,Fog,240,2014-01-11 11:07:00
5:20 AM,62.6,60.8,94,29.89,0.5,WSW,8.1,-,N/A,Fog,Fog,250,2014-01-11 11:20:00
5:53 AM,62.1,61.0,96,29.91,0.8,West,6.9,-,N/A,,Mist,260,2014-01-11 11:53:00
6:03 AM,62.6,60.8,94,29.91,1.5,West,8.1,-,N/A,,Overcast,260,2014-01-11 12:03:00
6:12 AM,62.6,60.8,94,29.92,2.5,West,10.4,-,N/A,,Overcast,270,2014-01-11 12:12:00
6:21 AM,62.6,60.8,94,29.92,4.0,WSW,9.2,-,N/A,,Overcast,250,2014-01-11 12:21:00
6:53 AM,61.0,60.1,97,29.94,5.0,West,8.1,-,N/A,,Overcast,260,2014-01-11 12:53:00
7:19 AM,60.8,59.0,94,29.95,4.0,WNW,8.1,-,N/A,,Overcast,290,2014-01-11 13:19:00
7:53 AM,61.0,59.0,93,29.98,3.0,West,8.1,-,N/A,,Overcast,280,2014-01-11 13:53:00
8:30 AM,62.6,60.8,94,30.00,4.0,WNW,9.2,-,N/A,,Mostly Cloudy,300,2014-01-11 14:30:00
8:53 AM,63.0,60.1,90,30.02,7.0,NW,10.4,-,N/A,,Mostly Cloudy,310,2014-01-11 14:53:00
9:23 AM,64.4,57.2,77,30.03,9.0,NW,10.4,-,N/A,,Partly Cloudy,310,2014-01-11 15:23:00
9:53 AM,64.9,59.0,81,30.05,9.0,NNW,10.4,19.6,N/A,,Mostly Cloudy,330,2014-01-11 15:53:00
10:06 AM,66.2,59.0,78,30.05,9.0,NW,10.4,-,N/A,,Scattered Clouds,320,2014-01-11 16:06:00
10:53 AM,69.1,52.0,54,30.06,10.0,North,16.1,20.7,N/A,,Clear,360,2014-01-11 16:53:00
11:53 AM,71.1,39.9,32,30.05,10.0,North,16.1,21.9,N/A,,Clear,10,2014-01-11 17:53:00
12:53 PM,73.0,32.0,22,30.03,10.0,NNW,16.1,-,N/A,,Clear,330,2014-01-11 18:53:00
1:53 PM,73.9,30.9,21,30.02,10.0,NNW,15.0,-,N/A,,Clear,330,2014-01-11 19:53:00
2:53 PM,73.0,28.0,19,30.01,10.0,NW,13.8,23.0,N/A,,Clear,320,2014-01-11 20:53:00
3:53 PM,73.0,27.0,18,30.03,10.0,NW,12.7,-,N/A,,Clear,320,2014-01-11 21:53:00
4:53 PM,70.0,30.0,23,30.05,10.0,NNW,9.2,-,N/A,,Clear,330,2014-01-11 22:53:00
5:53 PM,62.1,28.0,28,30.07,10.0,NW,5.8,-,N/A,,Clear,310,2014-01-11 23:53:00
6:53 PM,61.0,28.0,29,30.09,10.0,WNW,4.6,-,N/A,,Clear,300,2014-01-12 00:53:00
7:53 PM,57.0,30.9,37,30.10,10.0,NW,6.9,-,N/A,,Clear,310,2014-01-12 01:53:00
8:53 PM,57.9,28.9,33,30.12,10.0,NW,5.8,-,N/A,,Clear,310,2014-01-12 02:53:00
9:53 PM,51.1,32.0,48,30.13,10.0,Calm,Calm,-,N/A,,Clear,0,2014-01-12 03:53:00
10:53 PM,46.0,37.0,71,30.13,10.0,WSW,3.5,-,N/A,,Clear,250,2014-01-12 04:53:00
11:53 PM,46.0,36.0,68,30.12,10.0,Calm,Calm,-,N/A,,Clear,0,2014-01-12 05:53:00